STARLINK-32643, 62233

Orbit data source: Space-Track

STARLINK-32643, 62233 is a payload satellite owned by SpaceX/Seattle (US) in LEO that was launched on Thu, 05 Dec 2024 UTC via an FALCON 9 launch vehicle from the Air Force Western Test Range (AFWTR). Payload-class satellites include a variety of spacecraft equipped with specific instruments for various scientific and technological missions. These include communications satellites like Starlink; space stations such as the ISS; scientific satellites like the Hubble; Earth observation satellites from companies like Planet Labs, Umbra, and HawkEye 360; GPS; miniature CubeSats for education and research; and military/defense satellites.

Loading next visibility...
Identifier
62233, 2024-231R
Orbit
LEO
Country
Flag of USUS
Related business
Manufacturer
SpaceX/Seattle
Mission
Operational Commercial Communications
Bus & Motor
STARLINK V2M, Unknown motor
Mass
730 kg wet, ~700 kg dry
Launch date (UTC)
2024-12-05 (2 years ago)
Launch vehicle
FALCON 9
Launch site
Air Force Western Test Range (AFWTR)
Object type
Payload
Rocket body
Debris
Shape & HBR
Box + 2 Pan, 17.7 m
Radar Cross Section
33.884 m², Large (>1 m²)

Expand to show TLE details & history
Last TLE update: 17 hours ago

TLE from 17 hours ago
0 STARLINK-32643
1 62233U 24231R   26171.15042606  .00023897  00000-0  77812-3 0  9996
2 62233  53.1582  90.3597 0001079 107.6548 252.4572 15.31751763 87633
Epoch: 2026-06-20T03:36Z
TLE epoch observation values (Epoch: 2026-06-20T03:36:36.811Z)
Latitude
0.00003°
Longitude
127.83717°
Altitude
471.709 km
Speed
7.631 km/s
True Right ascension
06h 01m 26s
True Declination
0° 00' 00"
Sunlit
Object was in daylight at epoch
Visualization orbit readout
Latitude
Unknown
Longitude
Unknown
Altitude
Unknown
Speed
Unknown
Apparent Right ascension
Unknown
Apparent Declination
Unknown
Sunlit
N/A
Visualization observer readout
Local Sidereal Time
07:24:08
Azimuth
Unknown
Elevation
Unknown
Doppler factor
Unknown
Orbital elements
Apogee altitude
471.582 km
Perigee altitude
470.104 km
Semi-major axis
6,848.98 km
Eccentricity
0.00011
Inclination
53.1582°
RAAN
90.3597°
Arg. of periapsis
107.6548°
True anomaly
252.44541°
Mean anomaly
252.4572°
Eccentric anomaly
252.45131°
Mean motion
3.82917 °/min
Orbital period
94.02 mins
BSTAR
0.00077812
Loading maneuver chart data...
Computing Atmospheric mass density...
Loading historical data...
Loading historical data...
Loading historical data...
Loading historical data...
Loading historical data...
Loading historical data...
Loading historical data...

Documentation

Showing up to 5 results
|